| time (UTC) | temp F | wind direction | speed knots | gust knots | rain 1hr in | rain 24hr in | rain mn in | humidity % | barometer mb |
| 20260505151617 | 71 | 46 | 7.0 | 16.5 | 0.00 | 0.00 | 0.00 | 40 | 1014.6 |
| 20260505124553 | 50 | 46 | 0.9 | 2.6 | 0.00 | 0.00 | 0.00 | 88 | 1015.5 |
| 20260505123053 | 48 | 31 | 0.0 | 2.6 | 0.00 | 0.00 | 0.00 | 91 | 1015.4 |
| 20260505121557 | 48 | 0 | 0.0 | 0.0 | 0.00 | 0.00 | 0.00 | 92 | 1015.3 |
| 20260505120112 | 47 | 0 | 0.0 | 0.0 | 0.00 | 0.00 | 0.00 | 92 | 1015.3 |
| 20260505114558 | 47 | 0 | 0.0 | 0.0 | 0.00 | 0.00 | 0.00 | 92 | 1015.2 |
| 20260505113059 | 47 | 0 | 0.0 | 0.0 | 0.00 | 0.00 | 0.00 | 93 | 1015.3 |
| 20260505111553 | 46 | 0 | 0.0 | 0.0 | 0.00 | 0.00 | 0.00 | 93 | 1015.1 |
| 20260505101555 | 46 | 0 | 0.0 | 0.0 | 0.00 | 0.00 | 0.00 | 92 | 1014.5 |
| 20260505100054 | 47 | 0 | 0.0 | 0.0 | 0.00 | 0.00 | 0.00 | 91 | 1014.4 |
| 20260505094552 | 47 | 0 | 0.0 | 0.9 | 0.00 | 0.00 | 0.00 | 91 | 1014.3 |
| 20260505093054 | 47 | 0 | 0.0 | 0.9 | 0.00 | 0.00 | 0.00 | 91 | 1014.3 |
| 20260505091552 | 47 | 0 | 0.0 | 1.7 | 0.00 | 0.00 | 0.00 | 91 | 1014.2 |
| 20260505090052 | 47 | 0 | 0.0 | 0.0 | 0.00 | 0.00 | 0.00 | 91 | 1014.3 |
| 20260505084552 | 48 | 0 | 0.0 | 0.0 | 0.00 | 0.00 | 0.00 | 90 | 1014.3 |
| 20260505083052 | 48 | 0 | 0.0 | 0.0 | 0.00 | 0.00 | 0.00 | 89 | 1014.3 |
| 20260505081605 | 49 | 0 | 0.0 | 0.0 | 0.00 | 0.00 | 0.00 | 89 | 1014.2 |
| 20260505080055 | 49 | 0 | 0.0 | 2.6 | 0.00 | 0.00 | 0.00 | 89 | 1013.9 |
| 20260505074558 | 48 | 0 | 0.0 | 0.0 | 0.00 | 0.00 | 0.00 | 90 | 1013.8 |
| 20260505073103 | 48 | 0 | 0.0 | 0.0 | 0.00 | 0.00 | 0.00 | 89 | 1013.7 |
| 20260505071559 | 49 | 0 | 0.0 | 0.0 | 0.00 | 0.00 | 0.00 | 89 | 1013.5 |
| 20260505070055 | 49 | 0 | 0.0 | 0.0 | 0.00 | 0.00 | 0.00 | 89 | 1013.4 |
| 20260505064554 | 49 | 0 | 0.0 | 0.0 | 0.00 | 0.00 | 0.00 | 88 | 1013.4 |
| 20260505063055 | 49 | 0 | 0.0 | 0.0 | 0.00 | 0.00 | 0.00 | 88 | 1013.4 |
| 20260505061609 | 50 | 0 | 0.0 | 0.0 | 0.00 | 0.00 | 0.00 | 87 | 1013.4 |
| 20260505060059 | 50 | 0 | 0.0 | 0.0 | 0.00 | 0.00 | 0.00 | 86 | 1013.2 |
| 20260505054625 | 50 | 0 | 0.0 | 0.0 | 0.00 | 0.00 | 0.00 | 86 | 1013.1 |
| 20260505053113 | 50 | 0 | 0.0 | 0.0 | 0.00 | 0.00 | 0.00 | 85 | 1013.0 |
| 20260505051557 | 51 | 0 | 0.0 | 0.0 | 0.00 | 0.00 | 0.00 | 84 | 1012.9 |
| 20260505041600 | 52 | 0 | 0.0 | 0.0 | 0.00 | 0.00 | 0.00 | 81 | 1012.5 |
| 20260505040101 | 53 | 0 | 0.0 | 0.0 | 0.00 | 0.00 | 0.00 | 79 | 1012.5 |
| 20260505034559 | 53 | 0 | 0.0 | 0.0 | 0.00 | 0.00 | 0.00 | 77 | 1012.4 |
| 20260505033100 | 54 | 0 | 0.0 | 0.9 | 0.00 | 0.00 | 0.00 | 76 | 1012.4 |
| 20260505031611 | 55 | 0 | 0.0 | 0.9 | 0.00 | 0.00 | 0.00 | 75 | 1012.5 |
| 20260505030059 | 55 | 79 | 0.0 | 0.9 | 0.00 | 0.00 | 0.00 | 73 | 1012.7 |
| 20260505024601 | 55 | 0 | 0.0 | 0.9 | 0.00 | 0.00 | 0.00 | 71 | 1012.4 |
| 20260505023111 | 56 | 79 | 0.0 | 0.9 | 0.00 | 0.00 | 0.00 | 70 | 1012.3 |
| 20260505021559 | 57 | 0 | 0.0 | 0.0 | 0.00 | 0.00 | 0.00 | 69 | 1012.3 |
| 20260505020057 | 57 | 0 | 0.0 | 0.0 | 0.00 | 0.00 | 0.00 | 66 | 1012.1 |
| 20260505014608 | 58 | 0 | 0.0 | 0.9 | 0.00 | 0.00 | 0.00 | 65 | 1012.1 |
| 20260505013108 | 59 | 0 | 0.0 | 0.9 | 0.00 | 0.00 | 0.00 | 62 | 1012.1 |
| 20260505011554 | 60 | 0 | 0.0 | 0.9 | 0.00 | 0.00 | 0.00 | 60 | 1012.0 |
| 20260505010053 | 61 | 0 | 0.0 | 0.9 | 0.00 | 0.00 | 0.00 | 58 | 1012.0 |
| 20260505004559 | 62 | 0 | 0.0 | 0.9 | 0.00 | 0.00 | 0.00 | 55 | 1011.7 |
| 20260505003057 | 64 | 0 | 0.0 | 0.9 | 0.00 | 0.00 | 0.00 | 53 | 1011.4 |
| 20260505001556 | 66 | 0 | 0.0 | 0.9 | 0.00 | 0.00 | 0.00 | 51 | 1011.3 |
| 20260505000112 | 68 | 0 | 0.0 | 0.9 | 0.00 | 0.00 | 0.00 | 49 | 1011.2 |
| 20260504234551 | 71 | 69 | 0.0 | 1.7 | 0.00 | 0.00 | 0.00 | 44 | 1010.9 |
| 20260504233057 | 73 | 314 | 0.0 | 1.7 | 0.00 | 0.00 | 0.00 | 39 | 1010.8 |
| 20260504231553 | 75 | 47 | 1.7 | 6.1 | 0.00 | 0.00 | 0.00 | 37 | 1010.8 |
| 20260504230108 | 75 | 68 | 2.6 | 9.6 | 0.00 | 0.00 | 0.00 | 35 | 1010.7 |
| 20260504224600 | 76 | 54 | 2.6 | 9.6 | 0.00 | 0.00 | 0.00 | 32 | 1010.8 |
| 20260504223056 | 76 | 85 | 4.3 | 13.0 | 0.00 | 0.00 | 0.00 | 34 | 1010.8 |
| 20260504221603 | 76 | 82 | 3.5 | 8.7 | 0.00 | 0.00 | 0.00 | 35 | 1010.9 |
| 20260504220101 | 76 | 49 | 6.1 | 13.0 | 0.00 | 0.00 | 0.00 | 34 | 1011.1 |
| 20260504214600 | 76 | 39 | 5.2 | 12.2 | 0.00 | 0.00 | 0.00 | 34 | 1011.1 |
| 20260504213107 | 77 | 218 | 4.3 | 11.3 | 0.00 | 0.00 | 0.00 | 33 | 1011.1 |
| 20260504211553 | 76 | 75 | 6.1 | 14.8 | 0.00 | 0.00 | 0.00 | 34 | 1011.0 |
| 20260504210104 | 77 | 44 | 4.3 | 9.6 | 0.00 | 0.00 | 0.00 | 35 | 1011.2 |
| 20260504204603 | 77 | 68 | 2.6 | 7.8 | 0.00 | 0.00 | 0.00 | 34 | 1011.0 |
| 20260504203113 | 76 | 9 | 1.7 | 9.6 | 0.00 | 0.00 | 0.00 | 36 | 1011.1 |
| 20260504201553 | 76 | 42 | 4.3 | 13.0 | 0.00 | 0.00 | 0.00 | 35 | 1011.2 |
| 20260504200055 | 75 | 115 | 2.6 | 7.8 | 0.00 | 0.00 | 0.00 | 36 | 1011.4 |
| 20260504194554 | 73 | 34 | 3.5 | 10.4 | 0.00 | 0.00 | 0.00 | 39 | 1011.6 |
| 20260504193058 | 71 | 6 | 3.5 | 14.8 | 0.00 | 0.00 | 0.00 | 42 | 1011.8 |
| 20260504191606 | 71 | 339 | 4.3 | 12.2 | 0.00 | 0.00 | 0.00 | 41 | 1011.8 |
| 20260504184555 | 72 | 22 | 7.0 | 14.8 | 0.00 | 0.00 | 0.00 | 42 | 1012.7 |
| 20260504183052 | 72 | 36 | 5.2 | 14.8 | 0.00 | 0.00 | 0.00 | 44 | 1013.0 |
| 20260504181601 | 71 | 37 | 7.8 | 17.4 | 0.00 | 0.00 | 0.00 | 44 | 1013.0 |
| 20260504180114 | 70 | 340 | 9.6 | 20.9 | 0.00 | 0.00 | 0.00 | 44 | 1013.1 |
| 20260504174553 | 70 | 98 | 3.5 | 10.4 | 0.00 | 0.00 | 0.00 | 46 | 1013.1 |
| 20260504173054 | 67 | 336 | 2.6 | 7.0 | 0.00 | 0.00 | 0.00 | 47 | 1013.4 |
| 20260504171558 | 68 | 0 | 0.9 | 3.5 | 0.00 | 0.00 | 0.00 | 47 | 1013.7 |